Total_Precipitation_Accumulation
1.49 1.90 2.34 2.87 3.51 4.34 5.20 5.44 5.08 4.47 3.87 3.32 2.71 2.26 1.97 1.79 1.74 1.50 1.22 1.12 1.09 1.06 1.14 0.96 1.03 1.13 1.15 1.14 1.18 1.19 1.12 0.96 1.11 1.22 1.04 0.85 0.76 0.76 0.67 0.63 0.66 0.61 0.67
1.54 1.98 2.53 2.95 3.31 3.81 4.50 4.65 4.20 3.54 2.84 2.37 2.12 1.91 1.76 1.47 1.31 1.24 1.11 0.90 0.89 0.90 0.96 0.95 0.79 0.82 0.88 0.81 0.84 1.00 1.04 0.88 0.97 1.11 1.08 0.89 0.88 0.77 0.50 0.52 0.55 0.54 0.65
1.37 2.05 2.55 2.83 3.10 3.28 3.23 3.26 3.00 2.44 2.04 1.79 1.67 1.56 1.54 1.37 1.14 1.02 0.86 0.71 0.65 0.65 0.70 0.68 0.68 0.75 0.77 0.80 0.78 0.81 0.87 0.81 0.77 0.89 1.06 0.93 0.77 0.66 0.56 0.50 0.47 0.55 0.70
1.20 1.93 2.18 2.23 2.32 2.38 2.16 2.10 2.10 1.88 1.71 1.55 1.39 1.20 1.03 0.95 0.86 0.81 0.72 0.64 0.58 0.55 0.53 0.54 0.53 0.60 0.66 0.77 0.67 0.68 0.71 0.72 0.64 0.66 0.74 0.75 0.74 0.72 0.62 0.54 0.51 0.55 0.68
0.89 1.22 1.24 1.33 1.44 1.50 1.47 1.55 1.75 1.76 1.63 1.55 1.49 1.38 1.10 0.91 0.83 0.80 0.77 0.68 0.62 0.57 0.52 0.51 0.53 0.51 0.50 0.54 0.58 0.68 0.65 0.65 0.60 0.59 0.63 0.71 0.74 0.72 0.68 0.64 0.58 0.52 0.47
0.58 0.77 0.81 0.84 0.88 0.89 0.97 1.14 1.49 1.63 1.56 1.48 1.42 1.31 1.16 1.02 0.87 0.77 0.69 0.64 0.63 0.63 0.59 0.55 0.58 0.54 0.50 0.52 0.54 0.56 0.56 0.61 0.67 0.64 0.65 0.75 0.78 0.73 0.72 0.67 0.61 0.55 0.47
0.47 0.61 0.75 0.76 0.70 0.66 0.72 0.86 1.06 1.17 1.21 1.27 1.31 1.27 1.24 1.10 0.92 0.78 0.63 0.59 0.57 0.56 0.61 0.63 0.62 0.60 0.59 0.56 0.54 0.52 0.53 0.60 0.68 0.66 0.63 0.66 0.70 0.75 0.76 0.70 0.63 0.65 0.63
0.34 0.37 0.46 0.46 0.47 0.53 0.55 0.62 0.74 0.82 0.91 1.00 1.10 1.12 1.10 1.01 0.87 0.84 0.69 0.58 0.54 0.56 0.62 0.62 0.57 0.55 0.55 0.54 0.57 0.50 0.48 0.58 0.67 0.70 0.79 0.75 0.65 0.77 0.85 0.82 0.83 0.81 0.85
0.16 0.18 0.18 0.20 0.26 0.36 0.47 0.54 0.61 0.67 0.74 0.81 0.92 0.95 0.93 0.91 0.91 0.86 0.73 0.65 0.67 0.64 0.67 0.59 0.58 0.55 0.54 0.55 0.58 0.58 0.60 0.65 0.68 0.77 0.91 0.93 0.85 0.81 0.86 0.93 1.00 1.08 1.05
0.11 0.12 0.12 0.12 0.14 0.18 0.33 0.47 0.53 0.62 0.73 0.77 0.75 0.75 0.85 0.85 0.86 0.82 0.74 0.73 0.71 0.69 0.74 0.70 0.65 0.61 0.59 0.64 0.72 0.70 0.69 0.76 0.83 0.96 1.05 1.07 1.06 1.02 0.94 0.98 1.04 1.08 1.14
0.12 0.10 0.10 0.09 0.11 0.13 0.21 0.33 0.41 0.51 0.58 0.62 0.63 0.73 0.80 0.79 0.78 0.78 0.73 0.72 0.69 0.69 0.71 0.70 0.70 0.67 0.71 0.87 1.07 1.04 0.95 0.97 1.03 1.11 1.22 1.26 1.28 1.26 1.12 1.08 1.05 1.05 1.14
0.14 0.13 0.12 0.08 0.09 0.12 0.15 0.24 0.28 0.30 0.34 0.41 0.48 0.58 0.69 0.71 0.71 0.73 0.79 0.79 0.75 0.68 0.61 0.61 0.65 0.65 0.71 0.87 1.14 1.27 1.26 1.22 1.12 1.18 1.35 1.43 1.37 1.26 1.16 1.15 1.08 1.07 1.16
0.17 0.18 0.16 0.10 0.09 0.10 0.14 0.18 0.21 0.25 0.27 0.33 0.38 0.48 0.60 0.68 0.70 0.71 0.74 0.77 0.75 0.72 0.69 0.68 0.70 0.75 0.77 0.78 0.94 1.14 1.21 1.21 1.15 1.22 1.27 1.29 1.35 1.29 1.22 1.14 1.07 1.06 1.15
0.21 0.25 0.24 0.15 0.12 0.13 0.16 0.19 0.22 0.25 0.28 0.32 0.41 0.47 0.55 0.66 0.74 0.75 0.76 0.78 0.82 0.79 0.78 0.77 0.80 0.82 0.79 0.79 0.90 1.01 1.08 1.12 1.14 1.18 1.22 1.23 1.23 1.28 1.32 1.22 1.16 1.18 1.22
0.24 0.22 0.25 0.18 0.15 0.16 0.18 0.20 0.22 0.26 0.29 0.34 0.41 0.46 0.54 0.61 0.66 0.74 0.78 0.85 0.88 0.84 0.89 0.95 0.93 0.89 0.82 0.75 0.88 0.98 0.97 1.05 1.09 1.08 1.04 1.10 1.26 1.34 1.37 1.25 1.22 1.28 1.27
0.27 0.27 0.29 0.25 0.22 0.20 0.19 0.19 0.24 0.33 0.40 0.48 0.52 0.52 0.58 0.65 0.65 0.70 0.73 0.84 0.90 0.94 1.02 1.06 1.05 0.96 0.77 0.81 0.91 0.93 0.92 0.96 1.00 1.00 0.95 0.92 0.99 1.11 1.19 1.16 1.12 1.17 1.22
0.41 0.49 0.53 0.42 0.31 0.27 0.26 0.27 0.32 0.40 0.48 0.56 0.68 0.72 0.73 0.77 0.79 0.83 0.85 0.90 1.03 1.10 1.09 1.07 1.08 1.05 1.02 0.96 0.87 0.82 0.79 0.84 0.89 0.90 0.86 0.73 0.69 0.87 0.95 1.05 1.08 1.04 1.03
0.47 0.53 0.56 0.55 0.50 0.45 0.42 0.44 0.47 0.53 0.66 0.78 0.89 0.97 1.01 1.08 1.13 1.18 1.13 1.15 1.22 1.29 1.28 1.22 1.23 1.29 1.24 1.14 0.96 0.88 0.77 0.77 0.80 0.81 0.80 0.79 0.78 0.80 0.87 0.97 1.04 1.03 0.98
0.50 0.59 0.58 0.57 0.57 0.64 0.63 0.60 0.61 0.67 0.83 0.99 1.11 1.17 1.22 1.30 1.35 1.32 1.37 1.46 1.55 1.58 1.59 1.54 1.55 1.55 1.56 1.47 1.23 1.10 0.95 0.92 0.89 0.93 0.96 0.95 0.89 0.87 0.80 0.82 0.86 0.89 0.95
0.56 0.62 0.67 0.65 0.69 0.82 0.81 0.79 0.82 0.90 0.94 0.99 1.09 1.26 1.43 1.54 1.52 1.53 1.64 1.81 1.95 1.90 1.89 1.91 1.91 1.85 1.81 1.69 1.37 1.21 1.07 1.09 1.07 1.12 1.09 0.99 0.86 0.76 0.68 0.71 0.76 0.76 0.77
0.51 0.58 0.63 0.67 0.67 0.77 0.86 0.98 1.08 1.11 1.13 1.18 1.26 1.37 1.53 1.68 1.70 1.77 1.82 1.94 2.05 2.04 2.00 1.92 1.85 1.80 1.80 1.70 1.42 1.30 1.18 1.21 1.24 1.17 1.12 1.05 0.91 0.73 0.66 0.63 0.65 0.67 0.72
0.41 0.48 0.59 0.64 0.67 0.79 0.99 1.13 1.22 1.29 1.35 1.44 1.59 1.64 1.70 1.68 1.64 1.77 1.87 1.95 2.04 2.01 1.96 1.97 1.85 1.75 1.73 1.58 1.39 1.24 1.17 1.26 1.34 1.30 1.21 1.13 0.97 0.74 0.66 0.57 0.56 0.57 0.57
0.41 0.46 0.55 0.63 0.68 0.76 0.92 1.18 1.25 1.30 1.36 1.46 1.55 1.65 1.68 1.71 1.71 1.76 1.84 1.96 2.00 1.98 1.91 1.92 1.92 1.83 1.73 1.66 1.44 1.22 1.09 1.13 1.20 1.32 1.37 1.22 1.05 0.87 0.74 0.72 0.68 0.61 0.57
0.42 0.44 0.51 0.60 0.64 0.63 0.71 0.85 0.95 1.02 1.09 1.17 1.24 1.28 1.38 1.48 1.64 1.81 1.81 1.83 1.90 1.97 2.00 1.98 1.92 1.87 1.82 1.81 1.61 1.38 1.20 1.18 1.25 1.33 1.37 1.23 1.12 0.97 0.84 0.80 0.72 0.63 0.59
0.37 0.40 0.48 0.49 0.51 0.57 0.59 0.64 0.72 0.90 0.99 1.00 1.04 1.12 1.24 1.36 1.51 1.68 1.75 1.69 1.72 1.85 1.85 1.76 1.67 1.61 1.57 1.63 1.56 1.37 1.28 1.26 1.33 1.39 1.46 1.39 1.28 1.19 1.06 0.97 0.91 0.85 0.78
0.35 0.40 0.45 0.45 0.45 0.51 0.55 0.57 0.67 0.85 0.98 0.99 0.97 1.01 1.05 1.17 1.30 1.43 1.49 1.41 1.25 1.26 1.22 1.11 0.99 0.95 0.97 1.07 1.07 1.01 0.96 1.00 1.12 1.23 1.38 1.36 1.27 1.21 1.17 1.12 1.06 1.00 0.93